Idaho Falls, ID

8:18 AM MDT on August 27, 2016 (GMT -0600)
Fanning

Weather History for KIDA - October, 2012

Change the Weather History Date:

Friday, October 5, 2012

  Actual Average Record
Temperature  
Mean Temperature 38 °F 49 °F  
Max Temperature 53 °F 65 °F 81 °F (1988)
Min Temperature 22 °F 34 °F 21 °F (1981)
Degree Days  
Heating Degree Days 27 16  
Month to date heating degree days 83 75  
Since 1 July heating degree days 238 383  
Cooling Degree Days 0 0  
Month to date cooling degree days 0 0  
Year to date cooling degree days 444 264  
Moisture  
Dew Point 18 °F    
Average Humidity 51    
Maximum Humidity 81    
Minimum Humidity 21    
Precipitation  
Precipitation 0.00 in 0.03 in 0.82 in (1967)
Month to date precipitation 0.00 0.14  
Year to date precipitation 4.32 7.96  
Sea Level Pressure  
Sea Level Pressure 30.25 in    
Wind  
Wind Speed 7 mph (North)    
Max Wind Speed 18 mph    
Max Gust Speed 23 mph    
Visibility 10 miles    
Events      
T = Trace of Precipitation, MM = Missing Value Source: NWS Daily Summary

Daily Weather History Graph

Daily Weather History Graph

Search for Another Location

Airport or City:

Trip Planner

Search our weather history database for the weather conditions in past years. The results will help you decide how hot, cold, wet, or windy it might be!

Date:

Astronomy

Oct. 05, 2012 Rise Set
Actual Time 7:31 AM MDT 7:01 PM MDT
Civil Twilight 7:02 AM MDT 7:29 PM MDT
Nautical Twilight 6:29 AM MDT 8:02 PM MDT
Astronomical Twilight 5:55 AM MDT 8:36 PM MDT
Moon 10:19 PM MDT (10/5) 12:50 PM MDT (10/5)
Length of Visible Light 12h 27m
Length of Day
11h 30m
Waning Gibbous, 73% of the Moon is Illuminated
Oct 5
Waning Gibbous
Oct 8
Last Quarter
Oct 15
New
Oct 21
First Quarter
Oct 29
Full

Hourly Weather History & Observations

Time (MDT) Temp. Windchill Dew Point Humidity Pressure Visibility Wind Dir Wind Speed Gust Speed Precip Events Conditions
12:53 AM 35.1 °F 27.4 °F 21.0 °F 57% 30.17 in 10.0 mi North 10.4 mph - N/A   Clear
2:53 AM 33.1 °F 26.1 °F 21.0 °F 61% 30.20 in 10.0 mi North 8.1 mph - N/A   Clear
3:53 AM 30.9 °F 23.5 °F 21.0 °F 67% 30.21 in 10.0 mi North 8.1 mph - N/A   Clear
4:53 AM 28.0 °F 21.7 °F 19.9 °F 72% 30.23 in 10.0 mi North 5.8 mph - N/A   Clear
5:53 AM 27.0 °F 21.6 °F 19.9 °F 75% 30.24 in 10.0 mi North 4.6 mph - N/A   Clear
6:53 AM 23.0 °F 15.8 °F 18.0 °F 81% 30.28 in 10.0 mi North 5.8 mph - N/A   Clear
7:53 AM 24.1 °F 18.2 °F 18.0 °F 77% 30.32 in 10.0 mi North 4.6 mph - N/A   Clear
8:53 AM 32.0 °F 28.7 °F 21.0 °F 64% 30.30 in 10.0 mi North 3.5 mph - N/A   Clear
9:53 AM 37.9 °F 30.9 °F 19.9 °F 48% 30.30 in 10.0 mi NE 10.4 mph - N/A   Clear
10:53 AM 43.0 °F 38.2 °F 19.9 °F 40% 30.29 in 10.0 mi NE 8.1 mph - N/A   Clear
11:53 AM 45.0 °F 39.7 °F 17.1 °F 33% 30.29 in 10.0 mi NNE 10.4 mph 16.1 mph N/A   Clear
12:53 PM 48.0 °F - 18.0 °F 30% 30.27 in 10.0 mi NNE 9.2 mph - N/A   Clear
1:53 PM 50.0 °F - 18.0 °F 28% 30.25 in 10.0 mi Calm Calm - N/A   Clear
2:53 PM 51.1 °F - 17.1 °F 26% 30.23 in 10.0 mi Calm Calm - N/A   Clear
3:53 PM 52.0 °F - 15.1 °F 23% 30.22 in 10.0 mi WNW 8.1 mph - N/A   Clear
4:53 PM 52.0 °F - 14.0 °F 22% 30.22 in 10.0 mi Calm Calm - N/A   Clear
5:53 PM 52.0 °F - 12.9 °F 21% 30.22 in 10.0 mi NW 3.5 mph - N/A   Clear
7:53 PM 44.1 °F - 19.0 °F 37% 30.26 in 10.0 mi Calm Calm - N/A   Clear
8:53 PM 39.0 °F 34.8 °F 23.0 °F 53% 30.26 in 10.0 mi NNE 5.8 mph - N/A   Clear
9:53 PM 39.9 °F 32.5 °F 14.0 °F 35% 30.26 in 10.0 mi NNE 12.7 mph - N/A   Clear
10:53 PM 39.0 °F 30.6 °F 16.0 °F 39% 30.27 in 10.0 mi NNE 15.0 mph 23.0 mph N/A   Clear
11:53 PM 37.0 °F 28.5 °F 18.0 °F 46% 30.28 in 10.0 mi NNE 13.8 mph - N/A   Clear